Simultaneous Nadir Overpasses (SNOs) Predictions

Prediction of SNOs between METOP-C and LANDSAT-8 Satellite Orbit:

Table of predicted SNOs for the next 14.0 days since TLE Epoch: 11/30/2019
Index Date (METOP-C) Time (METOP-C) Lat,Lon (METOP-C) SZA (METOP-C ) Date (LANDSAT-8) Time (LANDSAT-8) Lat,Lon (LANDSAT-8) SZA (LANDSAT-8 ) Distance(km) Time Diff (sec)
1 12/01/2019 09:53:15 81.16, 71.90 105.17 12/01/2019 09:53:52 81.16, 71.95 105.19 0.95 37
2 12/01/2019 10:43:53 -81.18,-119.97 74.73 12/01/2019 10:43:18 -81.18,-120.11 74.77 2.43 35
3 12/04/2019 05:27:36 81.16, 138.33 105.55 12/04/2019 05:28:08 81.15, 138.33 105.56 0.58 32
4 12/04/2019 06:18:13 -81.20, -53.16 74.30 12/04/2019 06:17:33 -81.20, -53.32 74.34 2.87 40
5 12/07/2019 01:01:56 81.16,-155.24 105.88 12/07/2019 01:02:23 81.16,-155.20 105.89 0.75 27
6 12/07/2019 01:52:34 -81.18, 12.90 74.02 12/07/2019 01:51:49 -81.18, 12.80 74.06 1.90 45
7 12/09/2019 20:36:17 81.16, -88.81 106.15 12/09/2019 20:36:39 81.16, -88.65 106.17 2.63 22
8 12/09/2019 21:26:55 -81.19, 79.35 73.76 12/09/2019 21:26:05 -81.19, 79.38 73.77 0.53 50
9 12/12/2019 16:10:37 81.17, -22.00 106.40 12/12/2019 16:10:55 81.17, -22.02 106.40 0.46 18




NCC Satellite Simultaneous Nadir Overpasses (SNOs) Prediction Service
